SCP
0 0 0 0 0 0 0 0 0 1 1 1 1 1 1 1 1 1 1 1 1 2 2 2 3 2 2 2 2 3 4 4 4 4 3 2 2 2 3 3 3 2 1 1
0 0 0 0 1 1 1 0 1 1 1 1 1 1 1 1 1 1 1 1 1 1 1 2 2 2 2 2 3 3 4 4 4 3 3 2 2 2 3 3 3 2 1 1
0 0 1 1 1 1 1 1 1 1 1 1 1 1 1 1 1 2 1 1 1 1 1 1 2 2 2 2 3 4 3 3 3 3 3 3 2 2 2 2 2 2 2 1
1 1 1 1 1 1 1 2 2 2 2 2 2 2 2 2 2 2 2 1 1 2 2 1 2 2 2 3 3 3 2 2 3 3 3 3 3 2 2 2 2 2 2 2
1 1 1 1 1 1 2 2 2 2 3 3 2 3 3 3 2 2 2 1 1 2 2 1 2 2 3 3 2 2 1 1 2 3 3 3 3 3 2 1 1 2 2 2
1 1 1 1 1 1 2 2 2 3 3 2 3 4 4 4 3 3 2 2 1 1 1 1 1 1 2 2 2 1 1 1 1 2 2 2 2 2 2 1 1 1 1 1
1 1 1 1 1 1 1 1 2 2 3 2 3 3 4 4 3 3 2 1 1 1 1 0 0 1 1 1 1 0 0 1 1 1 1 1 1 1 1 0 0 0 1 1
0 1 1 1 1 1 1 2 2 2 3 3 3 3 2 2 2 1 1 0 0 0 0 0 0 0 0 0 0 0 0 0 0 0 0 0 0 0 0 0 0 0 0 0
0 1 1 1 2 2 2 3 3 3 3 3 2 2 1 1 0 0 0 0 0 0 0 0 0 0 0 0 0 0 0 0 0 0 0 0 0 0 0 0 0 0 0 0
1 1 2 1 1 2 3 3 3 2 2 2 1 1 0 0 0 0 0 0 0 0 0 0 0 0 0 0 0 0 0 0 0 0 0 0 0 0 0 0 0 0 0 0
1 1 2 1 1 1 2 2 2 1 1 1 1 0 0 0 0 0 0 0 0 0 0 0 0 0 0 0 0 0 0 0 0 0 0 0 0 0 0 0 0 0 0 0
0 1 1 1 1 1 1 1 1 1 0 0 0 0 0 0 0 0 0 0 0 0 0 0 0 0 0 0 0 0 0 0 0 0 0 0 0 0 0 0 0 0 0 0
0 1 1 1 0 1 1 0 0 0 0 0 0 0 0 0 0 0 0 0 0 0 0 0 0 0 0 0 0 0 0 0 0 0 0 0 0 0 0 0 0 0 0 0
0 0 1 0 0 0 0 0 0 0 0 0 0 0 0 0 0 0 0 0 0 0 0 0 0 0 0 0 0 0 0 0 0 0 0 0 0 0 0 0 0 0 0 0
0 0 0 0 0 0 0 0 0 0 0 0 0 0 0 0 0 0 0 0 0 0 0 0 0 0 0 0 0 0 0 0 0 0 0 0 0 0 0 0 0 0 0 0
0 0 0 0 0 0 0 0 0 0 0 0 0 0 0 0 0 0 0 0 0 0 0 0 0 0 0 0 0 0 0 0 0 0 0 0 0 0 0 0 0 0 0 0
0 0 0 0 0 0 0 0 0 0 0 0 0 0 0 0 0 0 0 0 0 0 0 0 0 0 0 0 0 0 0 0 0 0 0 0 0 0 0 0 0 0 0 0
0 0 0 0 0 0 0 0 0 0 0 0 0 0 0 0 0 0 0 0 0 0 0 0 0 0 0 0 0 0 0 0 0 0 0 0 0 0 0 0 0 0 0 0
0 0 0 0 0 0 0 0 0 0 0 0 0 0 0 0 0 0 0 0 0 0 0 0 0 0 0 0 0 0 0 0 0 0 0 0 0 0 0 0 0 0 0 0
0 0 0 0 0 0 0 0 0 0 0 0 0 0 0 0 0 0 0 0 0 0 0 0 0 0 0 0 0 0 0 0 0 0 0 0 0 0 0 0 0 0 0 0
0 0 0 0 0 0 0 0 0 0 0 0 0 0 0 0 0 0 0 0 0 0 0 0 0 0 0 0 0 0 0 0 0 0 0 0 0 0 0 0 0 0 0 0
0 0 0 0 0 0 0 0 0 0 0 0 0 0 0 0 0 0 0 0 0 0 0 0 0 0 0 0 0 0 0 0 0 0 0 0 0 0 0 0 0 0 0 0
0 0 0 0 0 0 0 0 0 0 0 0 0 0 0 0 0 0 0 0 0 0 0 0 0 0 0 0 0 0 0 0 0 0 0 0 0 0 0 0 0 0 0 0
0 0 0 0 0 0 0 0 0 0 0 0 0 0 0 0 0 0 0 0 0 0 0 0 0 0 0 0 0 0 0 0 0 0 0 0 0 0 0 0 0 0 0 0
0 0 0 0 0 0 0 0 0 0 0 0 0 0 0 0 0 0 0 0 0 0 0 0 0 0 0 0 0 0 0 0 0 0 0 0 0 0 0 0 0 0 0 0
0 0 0 0 0 0 0 0 0 0 0 0 0 0 0 0 0 0 0 0 0 0 0 0 0 0 0 0 0 0 0 0 0 0 0 0 0 0 0 0 0 0 0 0
0 0 0 0 0 0 0 0 0 0 0 0 0 0 0 0 0 0 0 0 0 0 0 0 0 0 0 0 0 0 0 0 0 0 0 0 0 0 0 0 0 0 0 0
Wind_Speed
4 5 4 4 5 7 6 8 8 7 7 7 8 7 5 3 3 4 4 4 5 5 5 5 5 5 6 6 6 6 6 6 7 7 6 5 5 6 6 6 8 7 7 6
2 2 3 3 4 5 5 5 4 4 4 4 5 3 3 4 5 5 5 5 5 4 4 5 5 4 4 4 4 4 4 3 3 3 3 3 3 4 4 5 5 6 6 6
3 3 1 4 4 4 3 3 6 7 6 4 5 5 4 5 7 6 7 7 7 5 5 4 4 5 5 5 6 7 5 3 3 3 3 2 2 3 4 4 4 4 5 5
1 1 4 6 3 3 5 2 1 5 7 8 8 6 6 6 9 8 9 9 8 7 7 6 5 6 6 6 7 7 6 4 3 3 3 2 2 3 4 3 4 4 3 3
3 3 3 3 2 1 5 2 2 10 12 12 11 11 10 9 10 11 11 10 9 9 8 9 8 8 9 8 7 7 5 4 3 3 3 2 2 1 1 2 2 2 2 2
3 3 5 4 3 0 6 2 2 9 13 11 8 6 4 6 10 12 12 10 10 10 11 11 9 8 11 9 9 7 5 4 4 4 4 4 3 2 1 2 2 3 2 2
3 3 4 3 4 2 4 7 6 7 10 8 6 7 10 10 11 11 11 10 10 11 11 8 7 9 11 9 8 5 5 5 5 5 4 4 3 3 3 4 4 4 5 4
3 3 5 2 1 2 4 3 6 7 8 12 14 15 14 14 11 10 11 10 10 11 10 8 7 9 10 8 5 5 6 7 6 6 5 6 5 4 5 5 5 4 4 4
3 3 2 1 1 1 4 6 6 7 11 15 16 15 14 13 11 10 10 9 8 10 10 8 7 8 9 5 5 6 7 6 5 5 5 5 5 5 4 4 4 3 3 3
1 1 3 4 3 3 4 7 8 11 13 15 16 15 14 12 10 9 8 8 8 9 10 8 7 7 6 5 6 7 7 6 5 5 5 4 3 3 3 2 2 2 2 2
2 1 4 5 3 5 8 11 14 13 13 15 17 15 13 11 10 8 8 6 7 8 8 7 6 7 6 6 7 8 7 6 5 5 4 4 3 3 2 2 3 3 2 2
3 4 4 1 2 8 12 13 14 16 15 13 14 14 13 10 8 8 7 6 7 7 7 6 6 6 5 5 6 6 6 5 4 3 3 3 4 5 9 8 10 9 7 5
4 5 6 6 8 10 13 13 14 15 15 14 12 12 12 9 7 7 7 7 7 7 6 5 5 5 4 5 6 6 5 4 3 3 4 4 4 4 3 6 9 10 9 9
7 9 9 8 10 12 15 15 15 14 13 12 11 10 10 9 8 8 7 6 6 6 6 5 6 4 4 5 6 6 4 4 4 3 3 4 4 4 3 3 4 4 6 9
8 10 12 12 12 12 13 14 15 13 12 11 10 10 10 9 8 6 5 5 6 6 5 5 5 4 4 5 6 5 4 3 3 3 4 4 4 4 4 4 4 3 3 6
11 13 14 14 13 12 12 12 13 11 10 10 9 8 8 8 7 6 5 6 6 5 4 4 4 2 4 5 5 4 4 6 5 4 4 4 5 4 4 4 3 3 3 3
12 10 11 12 11 11 10 9 10 9 8 8 7 7 7 7 6 5 4 4 5 4 3 3 3 2 4 4 4 3 3 4 8 5 4 4 4 4 3 3 3 2 2 3
11 10 10 11 11 11 9 8 8 8 7 6 6 6 6 5 4 4 3 4 5 4 3 3 3 4 4 4 3 3 3 3 3 3 3 4 3 3 3 3 2 2 2 3
12 12 11 11 10 10 8 7 6 5 5 6 6 5 4 4 4 4 4 4 5 3 2 2 5 5 4 5 5 3 3 4 4 3 3 4 4 3 3 3 2 2 3 3
11 10 10 9 9 8 7 6 6 5 4 5 6 5 4 3 4 4 5 3 1 2 2 3 4 4 4 4 6 3 4 4 4 3 3 3 3 3 3 3 3 3 3 3
10 9 9 8 7 6 6 6 6 5 4 5 5 4 3 2 3 5 5 3 1 2 4 5 4 3 3 4 5 4 4 4 4 3 3 3 2 3 3 3 3 3 3 3
7 7 7 6 6 5 4 4 5 5 4 4 4 4 4 3 4 4 3 3 2 4 4 3 2 4 5 5 4 4 4 4 4 3 3 2 2 2 2 3 3 3 3 3
6 6 6 6 5 4 3 4 4 4 4 3 3 4 4 3 3 4 3 1 2 5 4 2 4 7 8 5 4 4 4 4 3 2 2 2 2 2 2 3 3 3 3 3
5 5 4 4 5 5 4 2 2 2 3 3 3 3 5 4 3 2 3 5 6 6 3 3 6 7 7 4 3 3 3 3 2 2 2 2 2 2 2 3 3 3 3 4
4 3 3 4 4 2 2 3 4 4 4 4 4 3 3 3 4 3 4 5 7 6 3 3 6 6 4 3 3 3 2 2 2 2 2 2 2 3 3 3 3 3 3 4
3 3 3 3 2 2 2 3 3 2 2 2 2 2 2 2 4 4 4 4 5 4 3 2 2 3 3 3 3 3 3 3 3 3 3 3 3 4 3 4 5 4 3 4
4 3 3 3 3 3 3 3 3 2 2 2 2 2 2 3 3 3 4 3 3 3 2 2 2 3 3 3 3 3 3 3 3 3 3 3 3 3 3 4 3 3 3 4
Wind_Direction
230 232 202 210 211 196 184 183 181 209 196 207 201 193 198 186 133 105 112 129 141 151 159 158 163 173 181 185 182 184 186 194 204 205 202 200 200 200 199 199 198 193 190 193
312 265 264 254 230 206 198 179 181 161 220 207 175 147 149 136 117 114 114 112 110 112 129 139 141 143 139 139 145 143 156 180 181 158 162 179 200 204 201 207 203 189 193 194
275 289 360 264 246 199 189 155 159 189 205 146 130 137 146 128 112 109 102 100 94 92 98 107 115 118 119 123 115 112 114 117 118 128 154 182 204 215 212 208 195 184 192 195
171 76 221 241 268 148 122 95 128 131 123 117 116 95 76 98 106 100 94 92 90 88 87 83 84 91 92 90 96 102 101 98 112 121 141 154 179 218 216 203 187 180 183 193
152 191 245 276 298 134 111 43 99 126 127 123 114 83 54 56 85 91 87 83 78 76 80 78 74 77 81 77 81 87 86 80 83 101 108 112 113 125 190 174 162 160 163 187
150 182 211 240 298 347 104 103 222 139 143 144 126 105 104 85 88 86 82 80 79 76 76 74 71 79 81 75 74 73 73 77 71 80 88 87 89 98 84 102 120 115 110 103
166 204 240 264 311 33 152 198 188 157 147 138 120 130 125 104 90 88 87 84 82 80 75 70 70 80 80 74 69 67 68 66 61 66 74 73 65 54 61 68 72 78 78 70
157 191 237 299 48 157 193 159 140 131 124 111 109 112 111 105 99 97 92 85 82 82 74 62 61 76 76 65 56 58 64 63 57 53 60 70 73 59 61 74 74 72 75 62
184 213 281 6 117 168 137 128 124 128 124 121 119 117 112 107 105 100 97 92 86 87 81 65 56 69 74 58 52 56 56 54 53 56 55 59 72 74 67 69 79 74 73 70
111 354 33 31 41 60 102 113 120 124 124 122 118 116 112 110 107 103 99 96 93 89 84 72 61 63 65 55 55 59 54 44 42 51 50 49 58 72 80 84 90 84 80 76
103 85 49 30 56 91 95 102 104 108 115 120 118 116 115 113 112 110 103 96 93 93 91 83 71 63 59 60 62 58 50 42 40 44 47 43 39 42 57 60 108 112 98 93
175 185 135 132 85 109 106 107 114 114 107 107 113 116 115 113 112 110 106 100 95 93 92 84 75 66 53 54 63 62 49 39 37 36 38 43 50 47 48 61 68 75 80 84
133 122 110 100 88 97 104 107 108 109 112 112 107 112 112 111 109 106 103 101 102 103 99 92 81 66 48 48 54 55 50 39 32 35 39 39 50 68 58 38 55 62 60 54
111 107 95 92 97 98 101 103 100 97 98 103 106 107 106 103 101 101 104 107 105 100 94 88 79 61 45 54 52 45 38 31 35 37 43 53 59 62 68 66 42 24 30 34
78 98 111 105 97 96 101 104 102 99 99 97 99 102 105 105 105 106 106 103 96 92 89 85 76 51 41 55 51 37 25 19 35 45 55 57 56 58 62 63 59 39 18 13
97 95 100 101 100 99 100 103 104 103 103 101 100 103 107 108 106 101 101 105 105 106 106 96 86 62 51 55 46 31 22 36 55 64 58 56 55 58 60 59 53 41 28 6
106 103 106 105 102 99 98 102 106 108 107 108 110 110 106 101 96 92 90 99 110 116 112 105 98 68 53 53 51 38 34 49 64 68 65 65 63 61 60 61 50 34 7 358
100 106 111 114 113 108 104 102 104 107 111 115 115 109 107 110 116 119 114 103 87 72 59 76 86 71 50 40 42 47 66 64 68 74 72 67 66 66 64 55 38 23 353 347
98 102 103 105 109 110 110 110 108 107 110 116 117 120 122 124 128 126 114 104 102 96 54 68 85 74 49 29 42 54 71 73 72 68 68 66 61 53 49 39 24 9 356 347
96 98 101 102 105 109 114 116 113 107 110 116 113 108 105 111 120 114 102 96 117 144 128 89 74 58 37 26 47 64 75 78 78 70 63 60 55 41 31 23 15 1 349 339
98 99 99 102 103 104 110 117 117 117 115 118 120 125 126 121 127 127 119 109 56 104 100 88 74 56 40 44 58 73 76 74 70 67 63 59 49 34 20 7 354 342 335 331
90 91 92 95 98 99 105 111 116 117 111 110 118 121 117 112 108 103 108 137 147 120 103 82 72 66 65 64 69 78 78 75 71 66 60 52 43 22 1 347 338 336 338 338
89 89 88 90 97 99 88 92 107 120 125 134 142 143 140 143 139 132 133 149 122 111 105 100 97 83 77 73 79 83 80 76 68 63 55 41 29 8 347 343 343 346 349 353
81 81 81 78 79 77 72 68 84 93 101 100 106 123 124 111 88 89 127 131 129 118 110 113 99 89 83 80 83 81 76 72 65 55 42 30 16 2 358 2 5 3 5 6
99 89 83 84 83 86 107 92 82 75 75 77 80 83 98 120 132 139 127 129 135 128 125 123 106 97 90 91 93 87 77 74 71 59 45 31 16 14 17 20 22 18 12 7
101 96 91 94 115 123 99 90 87 88 94 88 78 77 85 100 118 124 130 140 141 135 129 118 110 103 101 101 97 90 81 65 54 51 44 32 26 30 30 30 29 24 15 7
68 69 70 54 41 59 77 88 100 104 113 116 110 110 117 118 122 130 132 133 132 128 119 118 120 115 109 103 95 88 77 64 53 52 46 40 39 39 35 36 27 17 11 5